Time,TemperatureF,DewpointF,PressureIn,WindDirection,WindDirectionDegrees,WindSpeedMPH,WindSpeedGustMPH,Humidity,HourlyPrecipIn,Conditions,Clouds,dailyrainin,SoftwareType,DateUTC
2013-06-28 00:02:00,66.9,67.8,29.93,NW,309,0.0,0.0,95,0.00,,,0.34,meteohub,2013-06-28 05:02:00,
2013-06-28 00:07:00,66.9,67.8,29.92,NW,309,0.0,0.0,94,0.00,,,0.00,meteohub,2013-06-28 05:07:00,
2013-06-28 00:12:00,66.9,67.6,29.92,NW,309,0.0,0.0,94,0.00,,,0.00,meteohub,2013-06-28 05:12:00,
2013-06-28 00:17:00,66.9,68.0,29.92,NW,309,0.0,0.0,94,0.00,,,0.00,meteohub,2013-06-28 05:17:00,
2013-06-28 00:22:00,66.9,68.4,29.92,NW,309,0.0,0.0,95,0.00,,,0.00,meteohub,2013-06-28 05:22:00,
2013-06-28 00:27:00,66.9,68.4,29.92,NW,309,0.0,0.0,95,0.00,,,0.00,meteohub,2013-06-28 05:27:00,
2013-06-28 00:32:00,66.9,68.2,29.91,NW,309,0.0,0.0,95,0.00,,,0.00,meteohub,2013-06-28 05:32:00,
2013-06-28 00:37:00,66.0,68.0,29.91,NW,309,0.0,0.0,95,0.00,,,0.00,meteohub,2013-06-28 05:37:00,
2013-06-28 00:42:00,66.0,67.8,29.91,NW,309,0.0,0.0,95,0.00,,,0.00,meteohub,2013-06-28 05:42:00,
2013-06-28 00:47:00,66.0,67.6,29.91,NW,309,0.0,0.0,95,0.00,,,0.00,meteohub,2013-06-28 05:47:00,
2013-06-28 00:52:00,66.0,67.5,29.91,NW,309,0.0,0.0,95,0.00,,,0.00,meteohub,2013-06-28 05:52:00,
2013-06-28 00:57:00,66.0,67.3,29.91,NW,309,0.0,0.0,95,0.00,,,0.00,meteohub,2013-06-28 05:57:00,
2013-06-28 01:02:00,66.0,67.1,29.91,NW,309,0.0,0.0,95,0.00,,,0.00,meteohub,2013-06-28 06:02:00,
2013-06-28 01:07:00,66.0,67.3,29.91,NW,323,0.0,0.0,95,0.00,,,0.00,meteohub,2013-06-28 06:07:00,
2013-06-28 01:17:00,66.0,68.0,29.91,NNW,331,0.0,3.0,95,0.00,,,0.00,meteohub,2013-06-28 06:17:00,
2013-06-28 01:22:00,66.0,68.0,29.91,NNW,331,0.0,3.0,95,0.00,,,0.00,meteohub,2013-06-28 06:22:00,
2013-06-28 01:27:00,66.0,68.0,29.91,NNW,331,0.0,3.0,95,0.00,,,0.00,meteohub,2013-06-28 06:27:00,
2013-06-28 01:32:00,66.0,67.6,29.90,NNW,331,0.0,3.0,95,0.00,,,0.00,meteohub,2013-06-28 06:32:00,
2013-06-28 01:37:00,66.0,67.6,29.90,NNW,331,0.0,2.0,96,0.00,,,0.00,meteohub,2013-06-28 06:37:00,
2013-06-28 01:42:00,66.9,67.5,29.90,NNW,331,0.0,2.0,96,0.00,,,0.00,meteohub,2013-06-28 06:42:00,
2013-06-28 01:47:00,66.9,67.1,29.90,NNW,331,0.0,2.0,96,0.00,,,0.00,meteohub,2013-06-28 06:47:00,
2013-06-28 01:57:00,66.9,66.9,29.89,NNW,331,0.0,2.0,95,0.00,,,0.00,meteohub,2013-06-28 06:57:00,
2013-06-28 02:02:00,66.9,66.9,29.90,WNW,296,5.0,5.0,95,0.00,,,0.00,meteohub,2013-06-28 07:02:00,
2013-06-28 02:07:00,66.9,67.1,29.90,WNW,296,0.0,5.0,95,0.00,,,0.00,meteohub,2013-06-28 07:07:00,
2013-06-28 02:12:00,66.9,66.9,29.90,WNW,298,0.0,5.0,95,0.00,,,0.00,meteohub,2013-06-28 07:12:00,
2013-06-28 02:17:00,66.9,66.9,29.90,WNW,298,0.0,5.0,95,0.00,,,0.00,meteohub,2013-06-28 07:17:00,
2013-06-28 02:27:00,66.0,66.2,29.90,WNW,298,0.0,3.0,95,0.00,,,0.00,meteohub,2013-06-28 07:27:00,
2013-06-28 02:32:00,66.0,66.6,29.89,WNW,298,0.0,2.0,95,0.00,,,0.00,meteohub,2013-06-28 07:32:00,
2013-06-28 02:37:00,66.0,66.6,29.89,WNW,298,0.0,2.0,95,0.00,,,0.00,meteohub,2013-06-28 07:37:00,
2013-06-28 02:42:00,66.0,66.4,29.89,WNW,298,0.0,1.0,95,0.00,,,0.00,meteohub,2013-06-28 07:42:00,
2013-06-28 02:47:00,66.0,66.4,29.89,WNW,298,0.0,1.0,95,0.00,,,0.00,meteohub,2013-06-28 07:47:00,
2013-06-28 02:52:00,66.0,66.4,29.90,WNW,298,0.0,1.0,95,0.00,,,0.00,meteohub,2013-06-28 07:52:00,
2013-06-28 02:57:00,66.0,66.4,29.90,WNW,298,0.0,1.0,95,0.00,,,0.00,meteohub,2013-06-28 07:57:00,
2013-06-28 03:02:00,66.0,66.4,29.89,WNW,298,0.0,1.0,96,0.00,,,0.00,meteohub,2013-06-28 08:02:00,
2013-06-28 03:07:00,66.0,66.4,29.89,WNW,298,0.0,1.0,95,0.00,,,0.00,meteohub,2013-06-28 08:07:00,
2013-06-28 03:12:00,66.0,66.7,29.89,WNW,298,0.0,1.0,95,0.00,,,0.00,meteohub,2013-06-28 08:12:00,
2013-06-28 03:17:00,64.9,66.2,29.89,WNW,298,0.0,1.0,95,0.00,,,0.00,meteohub,2013-06-28 08:17:00,
2013-06-28 03:22:00,66.0,66.2,29.89,WNW,298,1.0,1.0,96,0.00,,,0.00,meteohub,2013-06-28 08:22:00,
2013-06-28 03:27:00,66.0,66.2,29.89,WNW,298,0.0,1.0,96,0.00,,,0.00,meteohub,2013-06-28 08:27:00,
2013-06-28 03:32:00,66.0,66.2,29.89,WNW,298,0.0,1.0,95,0.00,,,0.00,meteohub,2013-06-28 08:32:00,
2013-06-28 03:37:00,66.0,66.2,29.89,WNW,298,0.0,3.0,95,0.00,,,0.00,meteohub,2013-06-28 08:37:00,
2013-06-28 03:47:00,66.0,66.4,29.88,WNW,298,2.0,4.0,95,0.00,,,0.00,meteohub,2013-06-28 08:47:00,
2013-06-28 03:52:00,66.0,66.4,29.88,WNW,298,1.0,4.0,95,0.00,,,0.00,meteohub,2013-06-28 08:52:00,
2013-06-28 03:57:00,66.0,66.4,29.88,WNW,298,0.0,4.0,95,0.00,,,0.00,meteohub,2013-06-28 08:57:00,
2013-06-28 04:02:00,66.0,66.4,29.88,WNW,298,0.0,3.0,95,0.00,,,0.00,meteohub,2013-06-28 09:02:00,
2013-06-28 04:07:00,64.9,66.2,29.88,WNW,298,0.0,2.0,95,0.00,,,0.00,meteohub,2013-06-28 09:07:00,
2013-06-28 04:12:00,64.9,66.4,29.88,WNW,298,0.0,3.0,95,0.00,,,0.00,meteohub,2013-06-28 09:12:00,
2013-06-28 04:17:00,64.9,66.2,29.88,WNW,298,0.0,3.0,95,0.00,,,0.00,meteohub,2013-06-28 09:17:00,
2013-06-28 04:22:00,64.9,66.2,29.88,WNW,298,0.0,2.0,95,0.00,,,0.00,meteohub,2013-06-28 09:22:00,
2013-06-28 04:27:00,64.9,66.0,29.88,WNW,298,0.0,2.0,96,0.00,,,0.00,meteohub,2013-06-28 09:27:00,
2013-06-28 04:32:00,64.9,66.2,29.88,WNW,298,0.0,2.0,96,0.00,,,0.00,meteohub,2013-06-28 09:32:00,
2013-06-28 04:42:00,64.9,66.7,29.88,WNW,298,0.0,3.0,96,0.00,,,0.00,meteohub,2013-06-28 09:42:00,
2013-06-28 04:47:00,64.9,66.6,29.88,WNW,297,0.0,3.0,96,0.00,,,0.00,meteohub,2013-06-28 09:47:00,
2013-06-28 04:57:00,64.9,66.4,29.88,WNW,297,2.0,6.0,96,0.00,,,0.00,meteohub,2013-06-28 09:57:00,
2013-06-28 05:02:00,64.9,67.1,29.88,WNW,295,3.0,5.0,96,0.00,,,0.00,meteohub,2013-06-28 10:02:00,
2013-06-28 05:07:00,64.9,67.6,29.88,WNW,293,0.0,6.0,96,0.00,,,0.00,meteohub,2013-06-28 10:07:00,
2013-06-28 05:12:00,66.0,67.5,29.88,WNW,293,0.0,6.0,96,0.00,,,0.00,meteohub,2013-06-28 10:12:00,
2013-06-28 05:17:00,66.0,67.5,29.89,NW,307,4.0,6.0,96,0.00,,,0.00,meteohub,2013-06-28 10:17:00,
2013-06-28 05:22:00,66.9,67.5,29.89,West,268,6.0,7.0,97,0.00,,,0.00,meteohub,2013-06-28 10:22:00,
2013-06-28 05:27:00,66.9,67.6,29.90,WNW,294,0.0,9.0,97,0.00,,,0.00,meteohub,2013-06-28 10:27:00,
2013-06-28 05:32:00,66.9,67.6,29.90,WNW,297,3.0,9.0,97,0.00,,,0.00,meteohub,2013-06-28 10:32:00,
2013-06-28 05:37:00,68.0,67.6,29.90,WNW,299,1.0,9.0,97,0.00,,,0.00,meteohub,2013-06-28 10:37:00,
2013-06-28 05:42:00,68.0,67.8,29.91,WNW,284,0.0,8.0,97,0.00,,,0.00,meteohub,2013-06-28 10:42:00,
2013-06-28 05:47:00,68.0,67.6,29.91,WNW,284,2.0,8.0,96,0.00,,,0.00,meteohub,2013-06-28 10:47:00,
2013-06-28 05:52:00,68.0,67.6,29.91,WNW,286,0.0,7.0,96,0.00,,,0.00,meteohub,2013-06-28 10:52:00,
2013-06-28 05:57:00,68.0,67.5,29.91,WNW,286,0.0,7.0,96,0.00,,,0.00,meteohub,2013-06-28 10:57:00,
2013-06-28 06:02:00,68.0,67.5,29.91,WNW,286,0.0,5.0,96,0.00,,,0.00,meteohub,2013-06-28 11:02:00,
2013-06-28 06:07:00,68.0,67.6,29.91,WNW,291,0.0,5.0,96,0.00,,,0.00,meteohub,2013-06-28 11:07:00,
2013-06-28 06:12:00,68.0,67.6,29.91,WNW,291,0.0,5.0,96,0.00,,,0.00,meteohub,2013-06-28 11:12:00,
2013-06-28 06:17:00,68.0,67.5,29.91,WNW,291,0.0,5.0,96,0.00,,,0.00,meteohub,2013-06-28 11:17:00,
2013-06-28 06:22:00,68.0,67.5,29.91,WNW,291,0.0,5.0,96,0.00,,,0.00,meteohub,2013-06-28 11:22:00,
2013-06-28 06:27:00,68.0,67.5,29.91,WNW,291,0.0,4.0,96,0.00,,,0.00,meteohub,2013-06-28 11:27:00,
2013-06-28 06:32:00,68.0,67.6,29.92,WNW,291,0.0,4.0,96,0.00,,,0.00,meteohub,2013-06-28 11:32:00,
2013-06-28 06:37:00,68.0,67.5,29.92,WNW,291,0.0,5.0,96,0.00,,,0.00,meteohub,2013-06-28 11:37:00,
2013-06-28 06:42:00,68.0,67.5,29.92,WNW,291,0.0,5.0,95,0.00,,,0.00,meteohub,2013-06-28 11:42:00,
2013-06-28 06:47:00,68.0,67.5,29.92,WNW,291,0.0,5.0,95,0.00,,,0.00,meteohub,2013-06-28 11:47:00,
2013-06-28 06:52:00,66.9,67.3,29.92,WNW,291,0.0,4.0,95,0.00,,,0.00,meteohub,2013-06-28 11:52:00,
2013-06-28 06:57:00,66.9,67.1,29.92,WNW,291,1.0,4.0,95,0.00,,,0.00,meteohub,2013-06-28 11:57:00,
2013-06-28 07:02:00,66.9,67.6,29.92,WNW,291,0.0,4.0,95,0.00,,,0.00,meteohub,2013-06-28 12:02:00,
2013-06-28 07:07:00,66.9,67.6,29.92,WNW,291,0.0,4.0,95,0.00,,,0.00,meteohub,2013-06-28 12:07:00,
2013-06-28 07:12:00,66.9,67.8,29.92,WNW,291,0.0,4.0,96,0.00,,,0.00,meteohub,2013-06-28 12:12:00,
2013-06-28 07:17:00,68.0,68.2,29.92,WNW,291,3.0,3.0,96,0.00,,,0.00,meteohub,2013-06-28 12:17:00,
2013-06-28 07:22:00,68.0,67.6,29.92,WNW,291,0.0,5.0,96,0.00,,,0.00,meteohub,2013-06-28 12:22:00,
2013-06-28 07:27:00,68.0,67.3,29.92,WNW,292,0.0,5.0,96,0.00,,,0.00,meteohub,2013-06-28 12:27:00,
2013-06-28 07:32:00,68.0,67.5,29.93,WNW,292,0.0,6.0,96,0.00,,,0.00,meteohub,2013-06-28 12:32:00,
2013-06-28 07:37:00,68.0,67.5,29.93,WNW,292,0.0,6.0,96,0.00,,,0.00,meteohub,2013-06-28 12:37:00,
2013-06-28 07:42:00,68.0,67.6,29.92,WNW,292,0.0,6.0,95,0.00,,,0.00,meteohub,2013-06-28 12:42:00,
2013-06-28 07:47:00,68.0,67.6,29.93,NW,315,0.0,8.0,96,0.00,,,0.00,meteohub,2013-06-28 12:47:00,
2013-06-28 07:52:00,68.0,67.8,29.93,NW,317,4.0,8.0,95,0.00,,,0.00,meteohub,2013-06-28 12:52:00,
2013-06-28 07:57:00,68.0,67.6,29.93,NW,317,0.0,8.0,95,0.00,,,0.00,meteohub,2013-06-28 12:57:00,
2013-06-28 08:02:00,68.0,67.8,29.93,WNW,303,2.0,8.0,96,0.00,,,0.00,meteohub,2013-06-28 13:02:00,
2013-06-28 08:07:00,69.1,67.5,29.93,NW,306,5.0,8.0,95,0.00,,,0.00,meteohub,2013-06-28 13:07:00,
2013-06-28 08:12:00,69.1,67.8,29.93,NW,312,0.0,8.0,95,0.00,,,0.00,meteohub,2013-06-28 13:12:00,
2013-06-28 08:17:00,69.1,67.8,29.94,NNW,329,0.0,7.0,95,0.00,,,0.00,meteohub,2013-06-28 13:17:00,
2013-06-28 08:22:00,70.0,67.5,29.94,NW,314,2.0,7.0,95,0.00,,,0.00,meteohub,2013-06-28 13:22:00,
2013-06-28 08:27:00,70.0,66.7,29.94,WNW,290,0.0,8.0,94,0.00,,,0.00,meteohub,2013-06-28 13:27:00,
2013-06-28 08:32:00,71.1,66.6,29.94,NW,319,0.0,8.0,90,0.00,,,0.00,meteohub,2013-06-28 13:32:00,
2013-06-28 08:37:00,72.0,66.2,29.94,NW,321,6.0,8.0,88,0.00,,,0.00,meteohub,2013-06-28 13:37:00,
2013-06-28 08:42:00,73.0,66.7,29.94,WNW,283,8.0,9.0,85,0.00,,,0.00,meteohub,2013-06-28 13:42:00,
2013-06-28 08:52:00,73.9,65.5,29.94,NNW,327,0.0,9.0,83,0.00,,,0.00,meteohub,2013-06-28 13:52:00,
2013-06-28 08:57:00,73.9,66.7,29.94,NW,317,2.0,9.0,84,0.00,,,0.00,meteohub,2013-06-28 13:57:00,
2013-06-28 09:02:00,75.0,65.3,29.94,NW,304,0.0,8.0,79,0.00,,,0.00,meteohub,2013-06-28 14:02:00,
2013-06-28 09:07:00,75.9,65.8,29.94,NNW,336,0.0,10.0,76,0.00,,,0.00,meteohub,2013-06-28 14:07:00,
2013-06-28 09:12:00,75.9,65.8,29.94,WNW,294,1.0,10.0,77,0.00,,,0.00,meteohub,2013-06-28 14:12:00,
2013-06-28 09:17:00,75.9,64.6,29.95,NNW,340,0.0,10.0,74,0.00,,,0.00,meteohub,2013-06-28 14:17:00,
2013-06-28 09:22:00,77.0,65.3,29.95,NW,323,0.0,7.0,76,0.00,,,0.00,meteohub,2013-06-28 14:22:00,
2013-06-28 09:27:00,77.0,64.9,29.94,WNW,302,0.0,7.0,76,0.00,,,0.00,meteohub,2013-06-28 14:27:00,
2013-06-28 09:32:00,77.0,65.7,29.94,WNW,302,3.0,7.0,73,0.00,,,0.00,meteohub,2013-06-28 14:32:00,
2013-06-28 09:37:00,77.0,65.8,29.94,NNW,335,5.0,7.0,74,0.00,,,0.00,meteohub,2013-06-28 14:37:00,
2013-06-28 09:42:00,78.1,64.6,29.94,WNW,290,0.0,7.0,76,0.00,,,0.00,meteohub,2013-06-28 14:42:00,
2013-06-28 09:47:00,78.1,65.3,29.94,West,277,2.0,8.0,72,0.00,,,0.00,meteohub,2013-06-28 14:47:00,
2013-06-28 09:52:00,79.0,65.3,29.94,NNW,347,4.0,10.0,72,0.00,,,0.00,meteohub,2013-06-28 14:52:00,
2013-06-28 09:57:00,79.0,65.7,29.94,WNW,296,5.0,10.0,71,0.00,,,0.00,meteohub,2013-06-28 14:57:00,
2013-06-28 10:02:00,79.0,65.3,29.94,WNW,298,6.0,10.0,70,0.00,,,0.00,meteohub,2013-06-28 15:02:00,
2013-06-28 10:07:00,80.1,64.4,29.94,NW,321,2.0,9.0,70,0.00,,,0.00,meteohub,2013-06-28 15:07:00,
2013-06-28 10:12:00,80.1,64.4,29.94,North,351,4.0,9.0,70,0.00,,,0.00,meteohub,2013-06-28 15:12:00,
2013-06-28 10:17:00,80.1,64.6,29.94,WNW,296,4.0,10.0,68,0.00,,,0.00,meteohub,2013-06-28 15:17:00,
2013-06-28 10:22:00,80.1,65.3,29.94,NW,313,7.0,10.0,66,0.00,,,0.00,meteohub,2013-06-28 15:22:00,
2013-06-28 10:27:00,80.1,65.8,29.94,WNW,291,4.0,11.0,69,0.00,,,0.00,meteohub,2013-06-28 15:27:00,
2013-06-28 10:32:00,80.1,66.6,29.94,WNW,293,7.0,11.0,67,0.00,,,0.00,meteohub,2013-06-28 15:32:00,
2013-06-28 10:37:00,81.0,64.4,29.94,WNW,284,0.0,11.0,68,0.00,,,0.00,meteohub,2013-06-28 15:37:00,
2013-06-28 10:42:00,81.0,64.8,29.94,NNW,331,9.0,9.0,61,0.00,,,0.00,meteohub,2013-06-28 15:42:00,
2013-06-28 10:47:00,81.0,64.4,29.94,WNW,288,3.0,10.0,64,0.00,,,0.00,meteohub,2013-06-28 15:47:00,
2013-06-28 10:52:00,81.0,63.1,29.94,NW,311,5.0,10.0,67,0.00,,,0.00,meteohub,2013-06-28 15:52:00,
2013-06-28 10:57:00,81.0,63.9,29.94,NW,313,7.0,14.0,61,0.00,,,0.00,meteohub,2013-06-28 15:57:00,
2013-06-28 11:02:00,81.0,64.2,29.94,WNW,303,5.0,14.0,64,0.00,,,0.00,meteohub,2013-06-28 16:02:00,
2013-06-28 11:07:00,82.0,65.5,29.94,West,276,0.0,14.0,61,0.00,,,0.00,meteohub,2013-06-28 16:07:00,
2013-06-28 11:12:00,82.0,63.0,29.94,NNW,327,6.0,13.0,58,0.00,,,0.00,meteohub,2013-06-28 16:12:00,
2013-06-28 11:17:00,82.0,63.0,29.94,NNE,24,7.0,12.0,59,0.00,,,0.00,meteohub,2013-06-28 16:17:00,
2013-06-28 11:22:00,82.0,62.6,29.94,NW,313,5.0,12.0,61,0.00,,,0.00,meteohub,2013-06-28 16:22:00,
2013-06-28 11:27:00,82.0,61.5,29.94,NNW,337,9.0,15.0,59,0.00,,,0.00,meteohub,2013-06-28 16:27:00,
2013-06-28 11:32:00,82.0,63.9,29.94,WNW,301,6.0,17.0,57,0.00,,,0.00,meteohub,2013-06-28 16:32:00,
2013-06-28 11:37:00,82.0,61.7,29.93,NW,314,7.0,17.0,59,0.00,,,0.00,meteohub,2013-06-28 16:37:00,
2013-06-28 11:42:00,82.0,60.1,29.94,WNW,296,3.0,17.0,60,0.00,,,0.00,meteohub,2013-06-28 16:42:00,
2013-06-28 11:47:00,82.0,60.8,29.94,NW,309,3.0,17.0,55,0.00,,,0.00,meteohub,2013-06-28 16:47:00,
2013-06-28 11:52:00,82.0,63.1,29.94,NNW,348,10.0,15.0,55,0.00,,,0.00,meteohub,2013-06-28 16:52:00,
2013-06-28 11:57:00,82.0,61.5,29.94,WNW,293,5.0,15.0,57,0.00,,,0.00,meteohub,2013-06-28 16:57:00,
2013-06-28 12:02:00,82.9,61.9,29.94,WNW,300,0.0,15.0,58,0.00,,,0.00,meteohub,2013-06-28 17:02:00,
2013-06-28 12:07:00,82.9,61.2,29.94,NW,305,11.0,15.0,57,0.00,,,0.00,meteohub,2013-06-28 17:07:00,
2013-06-28 12:12:00,82.9,62.4,29.94,WNW,294,8.0,16.0,56,0.00,,,0.00,meteohub,2013-06-28 17:12:00,
2013-06-28 12:17:00,82.9,60.8,29.93,NNW,338,0.0,16.0,53,0.00,,,0.00,meteohub,2013-06-28 17:17:00,
2013-06-28 12:22:00,82.9,62.1,29.93,NW,306,8.0,13.0,62,0.00,,,0.00,meteohub,2013-06-28 17:22:00,
2013-06-28 12:27:00,82.9,62.1,29.93,NW,317,5.0,12.0,61,0.00,,,0.00,meteohub,2013-06-28 17:27:00,
2013-06-28 12:32:00,84.0,63.3,29.93,WNW,299,4.0,12.0,55,0.00,,,0.00,meteohub,2013-06-28 17:32:00,
2013-06-28 12:37:00,84.0,62.8,29.93,NW,315,10.0,12.0,60,0.00,,,0.00,meteohub,2013-06-28 17:37:00,
2013-06-28 12:42:00,84.0,62.6,29.93,WNW,290,5.0,12.0,57,0.00,,,0.00,meteohub,2013-06-28 17:42:00,
2013-06-28 12:52:00,84.0,61.0,29.93,NW,319,13.0,14.0,54,0.00,,,0.00,meteohub,2013-06-28 17:52:00,
2013-06-28 12:57:00,84.0,59.9,29.93,NW,307,4.0,18.0,53,0.00,,,0.00,meteohub,2013-06-28 17:57:00,
2013-06-28 13:02:00,84.0,60.3,29.93,NNE,28,1.0,18.0,49,0.00,,,0.00,meteohub,2013-06-28 18:02:00,
2013-06-28 13:07:00,84.0,59.0,29.92,NW,326,6.0,18.0,50,0.00,,,0.00,meteohub,2013-06-28 18:07:00,
2013-06-28 13:12:00,84.0,61.0,29.92,NNW,346,7.0,14.0,51,0.00,,,0.00,meteohub,2013-06-28 18:12:00,
2013-06-28 13:17:00,84.0,62.6,29.92,NW,304,5.0,15.0,52,0.00,,,0.00,meteohub,2013-06-28 18:17:00,
2013-06-28 13:22:00,84.0,60.4,29.92,North,0,4.0,15.0,49,0.00,,,0.00,meteohub,2013-06-28 18:22:00,
2013-06-28 13:27:00,84.0,60.6,29.92,West,275,2.0,15.0,51,0.00,,,0.00,meteohub,2013-06-28 18:27:00,
2013-06-28 13:32:00,84.0,61.2,29.92,NW,315,5.0,15.0,51,0.00,,,0.00,meteohub,2013-06-28 18:32:00,
2013-06-28 13:37:00,84.0,60.1,29.92,West,259,9.0,13.0,57,0.00,,,0.00,meteohub,2013-06-28 18:37:00,
2013-06-28 13:47:00,84.0,59.9,29.91,WNW,288,6.0,17.0,55,0.00,,,0.00,meteohub,2013-06-28 18:47:00,
2013-06-28 13:52:00,84.0,60.6,29.91,NNW,330,7.0,17.0,54,0.00,,,0.00,meteohub,2013-06-28 18:52:00,
2013-06-28 13:57:00,84.0,60.6,29.91,West,279,6.0,14.0,52,0.00,,,0.00,meteohub,2013-06-28 18:57:00,
2013-06-28 14:02:00,84.0,60.8,29.91,NE,47,9.0,13.0,53,0.00,,,0.00,meteohub,2013-06-28 19:02:00,
2013-06-28 14:07:00,84.9,60.3,29.91,NNW,340,10.0,14.0,51,0.00,,,0.00,meteohub,2013-06-28 19:07:00,
2013-06-28 14:12:00,84.9,59.5,29.91,WNW,302,7.0,15.0,50,0.00,,,0.00,meteohub,2013-06-28 19:12:00,
2013-06-28 14:17:00,84.9,59.5,29.90,WNW,287,9.0,15.0,56,0.00,,,0.00,meteohub,2013-06-28 19:17:00,
2013-06-28 14:22:00,84.9,58.5,29.90,NW,304,8.0,15.0,50,0.00,,,0.00,meteohub,2013-06-28 19:22:00,
2013-06-28 14:27:00,84.9,57.4,29.90,NW,310,13.0,19.0,46,0.00,,,0.00,meteohub,2013-06-28 19:27:00,
2013-06-28 14:37:00,84.9,58.5,29.90,NW,315,3.0,19.0,48,0.00,,,0.00,meteohub,2013-06-28 19:37:00,
2013-06-28 14:42:00,84.0,59.4,29.90,NW,325,10.0,19.0,43,0.00,,,0.00,meteohub,2013-06-28 19:42:00,
2013-06-28 14:47:00,84.0,59.4,29.90,NW,319,1.0,18.0,50,0.00,,,0.00,meteohub,2013-06-28 19:47:00,
2013-06-28 14:52:00,84.9,60.3,29.90,North,349,0.0,13.0,49,0.00,,,0.00,meteohub,2013-06-28 19:52:00,
2013-06-28 14:57:00,84.9,60.8,29.90,NNW,332,5.0,15.0,53,0.00,,,0.00,meteohub,2013-06-28 19:57:00,
2013-06-28 15:02:00,84.9,57.6,29.89,NNW,341,1.0,15.0,53,0.00,,,0.00,meteohub,2013-06-28 20:02:00,
2013-06-28 15:07:00,84.9,57.6,29.89,North,355,2.0,19.0,45,0.00,,,0.00,meteohub,2013-06-28 20:07:00,
2013-06-28 15:12:00,84.9,59.5,29.89,WNW,282,6.0,19.0,48,0.00,,,0.00,meteohub,2013-06-28 20:12:00,
2013-06-28 15:17:00,84.9,59.0,29.89,NW,311,3.0,15.0,49,0.00,,,0.00,meteohub,2013-06-28 20:17:00,
2013-06-28 15:22:00,84.9,63.0,29.89,NW,322,2.0,15.0,53,0.00,,,0.00,meteohub,2013-06-28 20:22:00,
2013-06-28 15:27:00,84.9,60.1,29.88,North,5,8.0,15.0,51,0.00,,,0.00,meteohub,2013-06-28 20:27:00,
2013-06-28 15:32:00,84.9,59.2,29.88,NW,312,7.0,13.0,46,0.00,,,0.00,meteohub,2013-06-28 20:32:00,
2013-06-28 15:37:00,84.9,59.4,29.88,North,351,12.0,13.0,46,0.00,,,0.00,meteohub,2013-06-28 20:37:00,
2013-06-28 15:42:00,84.9,58.5,29.88,NNW,338,6.0,18.0,47,0.00,,,0.00,meteohub,2013-06-28 20:42:00,
2013-06-28 15:47:00,84.9,59.2,29.88,NW,304,14.0,18.0,49,0.00,,,0.00,meteohub,2013-06-28 20:47:00,
2013-06-28 15:57:00,84.9,60.1,29.88,West,274,5.0,16.0,51,0.00,,,0.00,meteohub,2013-06-28 20:57:00,
2013-06-28 16:02:00,84.9,61.5,29.88,West,279,5.0,14.0,49,0.00,,,0.00,meteohub,2013-06-28 21:02:00,
2013-06-28 16:12:00,84.9,58.8,29.88,WNW,299,11.0,19.0,46,0.00,,,0.00,meteohub,2013-06-28 21:12:00,
2013-06-28 16:17:00,84.9,57.0,29.88,North,355,9.0,19.0,45,0.00,,,0.00,meteohub,2013-06-28 21:17:00,
2013-06-28 16:22:00,84.9,59.2,29.87,NW,308,6.0,15.0,47,0.00,,,0.00,meteohub,2013-06-28 21:22:00,
2013-06-28 16:27:00,84.9,60.1,29.87,NNW,341,6.0,15.0,51,0.00,,,0.00,meteohub,2013-06-28 21:27:00,
2013-06-28 16:37:00,84.9,58.3,29.87,NNW,331,6.0,14.0,47,0.00,,,0.00,meteohub,2013-06-28 21:37:00,
2013-06-28 16:42:00,84.9,56.8,29.87,NW,306,10.0,14.0,45,0.00,,,0.00,meteohub,2013-06-28 21:42:00,
2013-06-28 16:52:00,84.9,56.7,29.86,North,355,0.0,19.0,47,0.00,,,0.00,meteohub,2013-06-28 21:52:00,
2013-06-28 16:57:00,84.9,59.0,29.86,WNW,293,5.0,18.0,45,0.00,,,0.00,meteohub,2013-06-28 21:57:00,
2013-06-28 17:02:00,84.9,57.6,29.86,NNW,339,8.0,16.0,45,0.00,,,0.00,meteohub,2013-06-28 22:02:00,
2013-06-28 17:07:00,84.9,57.6,29.86,North,355,1.0,14.0,44,0.00,,,0.00,meteohub,2013-06-28 22:07:00,
2013-06-28 17:12:00,84.9,56.8,29.87,NNW,344,1.0,14.0,45,0.00,,,0.00,meteohub,2013-06-28 22:12:00,
2013-06-28 17:17:00,84.9,57.6,29.86,West,261,5.0,14.0,46,0.00,,,0.00,meteohub,2013-06-28 22:17:00,
2013-06-28 17:22:00,84.9,58.3,29.86,NW,322,5.0,16.0,46,0.00,,,0.00,meteohub,2013-06-28 22:22:00,
2013-06-28 17:27:00,84.9,56.7,29.86,NW,306,8.0,16.0,44,0.00,,,0.00,meteohub,2013-06-28 22:27:00,
2013-06-28 17:32:00,84.0,55.8,29.86,NW,315,4.0,18.0,46,0.00,,,0.00,meteohub,2013-06-28 22:32:00,
2013-06-28 17:37:00,84.0,56.7,29.86,WNW,300,3.0,18.0,44,0.00,,,0.00,meteohub,2013-06-28 22:37:00,
2013-06-28 17:42:00,84.0,58.8,29.86,NNW,343,8.0,18.0,46,0.00,,,0.00,meteohub,2013-06-28 22:42:00,
2013-06-28 17:47:00,84.0,57.9,29.86,NW,325,8.0,17.0,44,0.00,,,0.00,meteohub,2013-06-28 22:47:00,
2013-06-28 17:57:00,84.0,59.4,29.85,West,273,10.0,14.0,47,0.00,,,0.00,meteohub,2013-06-28 22:57:00,
2013-06-28 18:07:00,84.0,59.4,29.85,North,351,2.0,14.0,46,0.00,,,0.00,meteohub,2013-06-28 23:07:00,
2013-06-28 18:12:00,84.0,59.9,29.85,North,351,10.0,14.0,49,0.00,,,0.00,meteohub,2013-06-28 23:12:00,
2013-06-28 18:22:00,84.0,60.3,29.84,North,0,1.0,13.0,49,0.00,,,0.00,meteohub,2013-06-28 23:22:00,
2013-06-28 18:27:00,84.0,59.5,29.84,NNW,327,2.0,15.0,47,0.00,,,0.00,meteohub,2013-06-28 23:27:00,
2013-06-28 18:32:00,82.9,60.1,29.84,NW,314,7.0,15.0,46,0.00,,,0.00,meteohub,2013-06-28 23:32:00,
2013-06-28 18:37:00,82.9,59.4,29.84,NNW,335,6.0,17.0,49,0.00,,,0.00,meteohub,2013-06-28 23:37:00,
2013-06-28 18:42:00,82.0,59.9,29.84,NW,306,6.0,17.0,48,0.00,,,0.00,meteohub,2013-06-28 23:42:00,
2013-06-28 18:47:00,82.0,57.9,29.84,NNW,329,8.0,17.0,50,0.00,,,0.00,meteohub,2013-06-28 23:47:00,
2013-06-28 18:57:00,82.0,59.9,29.84,WNW,288,3.0,15.0,49,0.00,,,0.00,meteohub,2013-06-28 23:57:00,
2013-06-28 19:02:00,82.0,59.4,29.84,NW,321,0.0,13.0,53,0.00,,,0.00,meteohub,2013-06-29 00:02:00,
2013-06-28 19:07:00,81.0,59.5,29.84,NNW,327,0.0,13.0,53,0.00,,,0.00,meteohub,2013-06-29 00:07:00,
2013-06-28 19:12:00,81.0,59.0,29.84,NNW,337,5.0,13.0,54,0.00,,,0.00,meteohub,2013-06-29 00:12:00,
2013-06-28 19:17:00,80.1,60.1,29.84,NNW,337,6.0,13.0,54,0.00,,,0.00,meteohub,2013-06-29 00:17:00,
2013-06-28 19:22:00,80.1,59.2,29.84,NW,315,6.0,12.0,53,0.00,,,0.00,meteohub,2013-06-29 00:22:00,
2013-06-28 19:27:00,79.0,58.5,29.84,NNW,331,5.0,13.0,54,0.00,,,0.00,meteohub,2013-06-29 00:27:00,
2013-06-28 19:32:00,79.0,59.0,29.84,West,281,7.0,13.0,54,0.00,,,0.00,meteohub,2013-06-29 00:32:00,
2013-06-28 19:37:00,78.1,58.8,29.84,WNW,301,3.0,13.0,57,0.00,,,0.00,meteohub,2013-06-29 00:37:00,
2013-06-28 19:47:00,78.1,59.7,29.85,NNW,336,0.0,9.0,59,0.00,,,0.00,meteohub,2013-06-29 00:47:00,
2013-06-28 19:52:00,77.0,59.7,29.85,NW,316,0.0,11.0,58,0.00,,,0.00,meteohub,2013-06-29 00:52:00,
2013-06-28 19:57:00,77.0,59.4,29.85,NW,324,0.0,11.0,60,0.00,,,0.00,meteohub,2013-06-29 00:57:00,
2013-06-28 20:02:00,77.0,59.7,29.85,NW,307,5.0,9.0,61,0.00,,,0.00,meteohub,2013-06-29 01:02:00,
2013-06-28 20:07:00,75.9,60.6,29.85,NW,313,5.0,8.0,62,0.00,,,0.00,meteohub,2013-06-29 01:07:00,
2013-06-28 20:12:00,75.9,61.0,29.85,WNW,287,0.0,8.0,66,0.00,,,0.00,meteohub,2013-06-29 01:12:00,
2013-06-28 20:17:00,75.9,61.0,29.85,WNW,288,0.0,8.0,69,0.00,,,0.00,meteohub,2013-06-29 01:17:00,
2013-06-28 20:27:00,75.0,61.3,29.86,NW,315,1.0,5.0,70,0.00,,,0.00,meteohub,2013-06-29 01:27:00,
2013-06-28 20:32:00,73.9,60.8,29.86,NW,312,0.0,5.0,71,0.00,,,0.00,meteohub,2013-06-29 01:32:00,
2013-06-28 20:37:00,73.9,61.2,29.85,NW,313,0.0,4.0,72,0.00,,,0.00,meteohub,2013-06-29 01:37:00,
2013-06-28 20:42:00,73.0,60.8,29.86,NW,310,0.0,4.0,74,0.00,,,0.00,meteohub,2013-06-29 01:42:00,
2013-06-28 20:47:00,73.0,60.8,29.85,NW,310,0.0,4.0,75,0.00,,,0.00,meteohub,2013-06-29 01:47:00,
2013-06-28 20:52:00,72.0,60.6,29.85,NW,315,0.0,7.0,76,0.00,,,0.00,meteohub,2013-06-29 01:52:00,
2013-06-28 20:57:00,72.0,60.1,29.85,NW,315,1.0,7.0,77,0.00,,,0.00,meteohub,2013-06-29 01:57:00,
2013-06-28 21:02:00,71.1,60.4,29.85,NW,315,0.0,7.0,78,0.00,,,0.00,meteohub,2013-06-29 02:02:00,
2013-06-28 21:07:00,71.1,60.6,29.85,NW,315,0.0,4.0,78,0.00,,,0.00,meteohub,2013-06-29 02:07:00,
2013-06-28 21:12:00,70.0,60.6,29.85,NW,315,1.0,4.0,78,0.00,,,0.00,meteohub,2013-06-29 02:12:00,
2013-06-28 21:22:00,69.1,60.1,29.85,NW,315,0.0,4.0,80,0.00,,,0.00,meteohub,2013-06-29 02:22:00,
2013-06-28 21:27:00,69.1,60.8,29.85,NW,315,0.0,4.0,81,0.00,,,0.00,meteohub,2013-06-29 02:27:00,
2013-06-28 21:32:00,69.1,61.2,29.85,NW,315,0.0,1.0,81,0.00,,,0.00,meteohub,2013-06-29 02:32:00,
2013-06-28 21:37:00,68.0,60.8,29.85,NW,315,0.0,0.0,81,0.00,,,0.00,meteohub,2013-06-29 02:37:00,
2013-06-28 21:47:00,66.9,60.4,29.86,NW,315,0.0,1.0,82,0.00,,,0.00,meteohub,2013-06-29 02:47:00,
2013-06-28 21:52:00,66.9,60.3,29.86,NW,315,0.0,1.0,83,0.00,,,0.00,meteohub,2013-06-29 02:52:00,
2013-06-28 21:57:00,66.9,60.4,29.86,NW,315,0.0,1.0,84,0.00,,,0.00,meteohub,2013-06-29 02:57:00,
2013-06-28 22:07:00,66.0,60.6,29.86,NW,315,0.0,1.0,85,0.00,,,0.00,meteohub,2013-06-29 03:07:00,
2013-06-28 22:12:00,66.0,60.6,29.86,NW,315,0.0,1.0,86,0.00,,,0.00,meteohub,2013-06-29 03:12:00,
2013-06-28 22:22:00,64.9,60.3,29.86,NW,315,0.0,3.0,86,0.00,,,0.00,meteohub,2013-06-29 03:22:00,
2013-06-28 22:32:00,64.9,60.3,29.86,NW,315,0.0,3.0,87,0.00,,,0.00,meteohub,2013-06-29 03:32:00,
2013-06-28 22:42:00,64.0,60.8,29.86,NW,315,0.0,3.0,88,0.00,,,0.00,meteohub,2013-06-29 03:42:00,
2013-06-28 22:47:00,64.0,60.1,29.86,NW,315,0.0,2.0,88,0.00,,,0.00,meteohub,2013-06-29 03:47:00,
2013-06-28 22:57:00,64.0,59.9,29.86,NW,315,0.0,3.0,88,0.00,,,0.00,meteohub,2013-06-29 03:57:00,
2013-06-28 23:02:00,64.0,59.7,29.86,NW,315,0.0,3.0,88,0.00,,,0.00,meteohub,2013-06-29 04:02:00,
2013-06-28 23:07:00,63.0,59.9,29.86,NW,315,0.0,3.0,88,0.00,,,0.00,meteohub,2013-06-29 04:07:00,
2013-06-28 23:12:00,63.0,59.7,29.86,NW,315,0.0,3.0,88,0.00,,,0.00,meteohub,2013-06-29 04:12:00,
2013-06-28 23:17:00,63.0,59.9,29.86,NW,315,0.0,3.0,89,0.00,,,0.00,meteohub,2013-06-29 04:17:00,
2013-06-28 23:22:00,63.0,59.7,29.86,NW,315,0.0,2.0,89,0.00,,,0.00,meteohub,2013-06-29 04:22:00,
2013-06-28 23:27:00,63.0,59.5,29.86,NW,315,0.0,2.0,89,0.00,,,0.00,meteohub,2013-06-29 04:27:00,
2013-06-28 23:32:00,63.0,59.5,29.86,NW,315,0.0,2.0,89,0.00,,,0.00,meteohub,2013-06-29 04:32:00,
2013-06-28 23:37:00,62.1,59.4,29.86,NW,315,0.0,3.0,89,0.00,,,0.00,meteohub,2013-06-29 04:37:00,
2013-06-28 23:42:00,62.1,59.2,29.86,NW,315,0.0,3.0,90,0.00,,,0.00,meteohub,2013-06-29 04:42:00,
2013-06-28 23:47:00,62.1,59.5,29.86,NW,315,0.0,3.0,90,0.00,,,0.00,meteohub,2013-06-29 04:47:00,
2013-06-28 23:52:00,62.1,58.8,29.86,NW,315,0.0,1.0,90,0.00,,,0.00,meteohub,2013-06-29 04:52:00,
2013-06-28 23:57:00,62.1,59.0,29.86,NW,315,0.0,1.0,90,0.00,,,0.00,meteohub,2013-06-29 04:57:00,